Вернуться в каталог

STARLINK-31993

АктивенСвязьVLEO
NORAD 59961·PAYLOAD·🇺🇸 United States

Запущен Jun 5, 2024 с Cape Canaveral Space Force Station

Loading…

Ближайшие Пролёты (ближайшие 24 часа)

TLE

СвежийSource: CelesTrak SupGP

Эпоха: Sep 15, 2026, 01:58 UTC

1 59961C 24107S   26258.08243056 -.00006808  00000+0 -20111-3 0  2584
2 59961  53.1584 262.8570 0001330  88.2468 325.6932 15.34399037    16

Отслеживайте STARLINK-31993 в реальном времени с AllMySat

Download on the App Store